EST,Max TemperatureF,Mean TemperatureF,Min TemperatureF,Max Dew PointF,MeanDew PointF,Min DewpointF,Max Humidity, Mean Humidity, Min Humidity, Max Sea Level PressureIn, Mean Sea Level PressureIn, Min Sea Level PressureIn, Max VisibilityMiles, Mean VisibilityMiles, Min VisibilityMiles, Max Wind SpeedMPH, Mean Wind SpeedMPH, Max Gust SpeedMPH,PrecipitationIn, CloudCover, Events, WindDirDegrees
2013-2-1,51,37,23,28,17,3,75,46,19,30.40,30.18,30.01,10,10,10,21,8,34,0.00,1,,249
2013-2-2,48,34,19,34,18,7,87,55,24,30.43,30.28,30.06,10,10,10,13,4,16,0.00,1,,185
2013-2-3,51,40,28,36,31,27,93,71,38,30.07,29.95,29.87,10,10,6,13,5,21,0.00,3,,245
2013-2-4,50,36,23,32,25,19,93,63,34,30.17,30.09,30.01,10,10,10,9,2,,0.00,0,,222
2013-2-5,64,50,37,41,34,30,93,62,30,30.07,29.98,29.90,10,10,10,15,5,23,0.00,0,,209
2013-2-6,64,50,35,45,36,30,93,67,28,30.27,30.13,29.99,10,9,0,10,3,,0.00,0,,311
2013-2-7,60,48,37,48,43,36,94,84,59,30.29,30.18,29.87,10,7,4,24,11,31,1.53,3,,31
2013-2-8,53,48,44,52,43,30,94,82,53,30.03,29.81,29.59,10,9,5,31,14,37,0.57,5,,308
2013-2-9,53,40,28,28,25,19,93,54,26,30.38,30.22,30.03,10,10,10,10,5,18,0.00,0,,315
2013-2-10,55,40,26,43,30,21,93,68,26,30.50,30.40,30.30,10,10,10,10,3,,0.00,0,,97
2013-2-11,66,56,46,61,57,43,94,88,77,30.32,30.09,29.96,10,10,5,23,9,29,0.07,5,,206
2013-2-12,64,57,50,55,46,34,94,69,32,30.10,30.01,29.96,10,10,10,15,7,21,0.07,0,,257
2013-2-13,57,52,46,54,47,45,100,89,76,29.99,29.78,29.65,10,8,2,15,5,26,0.28,7,,303
2013-2-14,53,44,35,45,36,34,93,73,50,30.10,30.00,29.82,10,10,7,12,3,,0.00,0,,327
2013-2-15,60,44,28,39,33,27,93,72,31,30.11,30.04,29.97,10,9,3,8,2,,0.00,0,,199
2013-2-16,48,40,33,37,33,30,93,83,62,29.96,29.86,29.75,10,8,1,16,4,22,0.22,5,,339
2013-2-17,37,30,23,30,20,10,93,66,33,30.30,30.10,29.89,10,9,1,15,7,29,0.05,2,,288
2013-2-18,51,34,17,27,19,10,93,60,22,30.46,30.38,30.30,10,10,10,12,2,16,0.00,0,,190
2013-2-19,60,46,33,54,43,27,94,78,59,30.31,30.08,29.92,10,10,8,20,6,26,0.01,3,,203
2013-2-20,55,44,30,43,27,12,93,58,21,30.13,30.06,29.97,10,10,5,12,4,17,0.00,0,,271
2013-2-21,53,40,26,30,22,18,86,52,24,30.27,30.18,30.10,10,10,10,10,3,,0.00,0,,336
2013-2-22,46,42,37,43,32,25,93,69,53,30.35,30.24,30.10,10,10,9,13,8,17,0.00,6,,43
2013-2-23,46,44,42,45,43,39,100,92,87,30.10,29.94,29.85,10,4,0,7,3,,0.08,8,,304
2013-2-24,62,48,35,46,43,34,100,82,42,30.02,29.90,29.79,10,7,0,9,4,,0.00,4,,281
2013-2-25,44,40,35,37,29,25,93,66,49,30.21,30.13,30.02,10,10,10,20,8,29,0.00,1,,27
2013-2-26,66,52,39,64,50,30,100,87,70,30.11,29.83,29.60,10,8,4,22,13,37,0.86,6,,101
2013-2-27,60,51,42,57,42,37,94,71,45,29.83,29.75,29.64,10,10,10,17,8,25,0.00,1,,232
2013-2-28,53,44,35,43,35,28,93,67,44,29.85,29.77,29.73,10,10,7,9,6,,0.00,4,,257